Regional Weather Roundup
Issued by NWS

Home | Current Version | Previous Version | Text Only | Print | Product List | Glossary Off
Versions: 1 2 3 4 5 6 7 8 9 10 11 12 13 14 15 16 17 18 19 20 21 22 23 24 25 26 27 28 29 30 31 32 33 34 35 36 37 38 39 40 41 42 43 44 45 46 47 48 49 50

781
ASUS45 KBOI 211710
RWRID

IDAHO REGIONAL WEATHER ROUNDUP
NATIONAL WEATHER SERVICE BOISE ID
1000 AM MST TUE FEB 21 2017

NOTE: "FAIR" INDICATES FEW OR NO CLOUDS BELOW 12000 FEET
WITH NO SIGNIFICANT WEATHER AND/OR OBSTRUCTIONS TO VISIBILITY

IDZ012-014-211800-
SOUTHWEST IDAHO


CITY           SKY/WX    TMP DP  RH WIND       PRES   REMARKS
BOISE          MOSUNNY   52  31  44 SW21G31   29.89R
CALDWELL       MOSUNNY   54  32  43 S25G33    29.86R
MOUNTAIN HOME  SUNNY     49  34  56 SW12      29.92S
$$

IDZ016-017-211800-
SOUTHCENTRAL IDAHO


CITY           SKY/WX    TMP DP  RH WIND       PRES   REMARKS
BURLEY         MOSUNNY   53  38  56 W8        29.93F
JEROME           N/A    N/A N/A N/A MISG      29.95S
TWIN FALLS     LGT RAIN  50  35  56 SW12      29.96R
$$

IDZ019>023-211800-
SOUTHEAST IDAHO


CITY           SKY/WX    TMP DP  RH WIND       PRES   REMARKS
IDAHO FALLS    PTSUNNY   40  37  89 S15       29.94F WCI  32
POCATELLO      CLOUDY    47  38  71 SW9       29.96S
REXBURG        CLOUDY    41  36  82 SW17G25   29.93S
$$

IDZ006-010-011-018-031-032-211800-
CENTRAL IDAHO MOUNTAINS


CITY           SKY/WX    TMP DP  RH WIND       PRES   REMARKS
MCCALL         LGT RAIN  38  28  67 S23G31    29.78R WCI  27
HAILEY         CLOUDY    41  34  75 S12       29.96S
STANLEY          N/A     36  22  56 NW9G20    29.82F WCI  29
SALMON         CLOUDY    45  30  57 S23G31    29.75R
CHALLIS        LGT RAIN  36  33  89 S14G23    29.82R WCI  27
$$

IDZ002-004-006-007-026-211800-
NORTHERN IDAHO


CITY           SKY/WX    TMP DP  RH WIND       PRES   REMARKS
LEWISTON       CLOUDY    43  39  86 E5        29.69R
LOWELL           N/A     36  34  92 NW3       29.74R
COEUR D`ALENE  LGT SNOW  33  32  96 NE6       29.68R FOG     WCI  28
MULLAN PASS    SNOW      28  28 100 S8G16     29.58R VSB 1/4 WCI  20
$$




USA.gov is the U.S. government's official web portal to all federal, state and local government web resources and services.